Le nostre stazioni meteo in Italia

Pubblicità
Il mio iltempo24.it
Geneve-Cointrin, Svizzera (6700): Temperatura & dewpoint: 14.08.2017 06:00:00 - 20.08.2017 06:00:00 (CEST)Geneve-Cointrin, Svizzera (6700): Temperatura 5cm: 14.08.2017 06:00:00 - 20.08.2017 06:00:00 (CEST)Geneve-Cointrin, Svizzera (6700): velocità del vento & gusts: 14.08.2017 06:00:00 - 20.08.2017 06:00:00 (CEST)Geneve-Cointrin, Svizzera (6700): direzione del vento: 14.08.2017 06:00:00 - 20.08.2017 06:00:00 (CEST)Geneve-Cointrin, Svizzera (6700): reduced air pressure: 14.08.2017 06:00:00 - 20.08.2017 06:00:00 (CEST)Geneve-Cointrin, Svizzera (6700): visibility: 14.08.2017 06:00:00 - 20.08.2017 06:00:00 (CEST)Geneve-Cointrin, Svizzera (6700): ore di luce: 14.08.2017 06:00:00 - 20.08.2017 06:00:00 (CEST)Geneve-Cointrin, Svizzera (6700): precipitazioni: 14.08.2017 06:00:00 - 20.08.2017 06:00:00 (CEST)
Data & Tempo tt [°C] td [°C] tt 5cm [°C] ff [km/h] ff [kn] fx [km/h] fx [kn] dd ppp [hPa] vv [km] sd [min] rr [mm]
20.08.2017 06:00:00 - - - - - - - - - - - -
20.08.2017 05:00:00 12,0 8,7 8,3 2 1 - - SO 1023,2 - 0 0,0
20.08.2017 04:00:00 13,4 8,5 9,5 3 2 6 3 E 1022,9 - 0 0,0
20.08.2017 03:00:00 14,0 8,4 12,0 1 1 6 3 ONO 1022,7 - 0 0,0
20.08.2017 02:00:00 14,2 7,9 10,2 2 1 10 5 NNO 1022,5 - 0 0,0
20.08.2017 01:00:00 13,9 8,7 9,6 4 2 13 7 NNO 1022,8 - 0 0,0
20.08.2017 00:00:00 15,2 8,7 11,6 1 0 11 6 N 1022,3 - 0 0,0
19.08.2017 23:00:00 18,5 7,2 14,4 5 3 18 10 N 1021,6 50 0 0,0
19.08.2017 22:00:00 18,1 8,0 14,9 6 4 28 15 NE 1021,5 - 0 0,0
19.08.2017 21:00:00 19,1 6,7 17,2 9 5 26 14 NO 1020,6 - 1 0,0
19.08.2017 20:00:00 20,0 7,4 19,3 10 6 29 16 NO 1019,7 50 52 0,0
19.08.2017 19:00:00 21,9 8,8 24,2 8 4 21 12 ONO 1018,9 - 60 0,0
19.08.2017 18:00:00 23,4 9,4 27,5 11 6 23 13 NO 1018,7 - 56 0,0
19.08.2017 17:00:00 22,7 9,0 25,7 6 3 24 13 NNO 1018,5 50 7 0,0
19.08.2017 16:00:00 22,8 9,6 23,6 4 2 15 8 NNO 1018,3 - 5 0,0
19.08.2017 15:00:00 22,5 9,5 26,1 7 4 28 15 NNE 1018,4 - 24 0,0
19.08.2017 14:00:00 24,0 9,8 32,7 9 5 29 16 SSO 1018,4 50 60 0,0
19.08.2017 13:00:00 22,8 9,4 31,2 8 4 23 12 OSO 1018,7 - 53 0,0
19.08.2017 12:00:00 21,8 10,1 31,1 3 1 18 10 NO 1018,9 - 51 0,0
19.08.2017 11:00:00 20,4 9,1 23,7 6 3 13 7 SSE 1019,5 50 46 0,0
19.08.2017 10:00:00 20,3 11,1 26,9 4 2 14 8 SSE 1019,7 - 60 0,0
19.08.2017 09:00:00 19,0 12,3 24,4 8 4 17 9 S 1019,6 - 49 0,0
19.08.2017 08:00:00 17,3 13,4 16,4 6 4 11 6 OSO 1019,7 50 0 0,0
19.08.2017 07:00:00 17,7 13,5 16,1 4 2 10 6 O 1019,5 - 0 0,0
19.08.2017 06:00:00 17,1 13,7 15,8 5 3 12 6 O 1019,6 - 0 0,0
19.08.2017 05:00:00 17,9 13,1 16,1 11 6 16 9 SSO 1019,4 - 0 0,0
19.08.2017 04:00:00 17,5 13,8 16,3 8 4 14 8 OSO 1019,8 - 0 0,0
19.08.2017 03:00:00 16,9 14,0 15,3 7 4 11 6 OSO 1019,9 - 0 0,0
19.08.2017 02:00:00 17,6 12,9 16,1 4 2 9 5 O 1019,7 - 0 0,0
19.08.2017 01:00:00 18,5 14,2 17,4 5 3 16 9 O 1019,5 - 0 0,0
19.08.2017 00:00:00 19,1 14,8 17,6 11 6 18 10 SSO 1019,3 - 0 0,0
18.08.2017 23:00:00 19,2 15,1 17,6 11 6 16 9 SO 1019,1 50 0 0,0
18.08.2017 22:00:00 19,7 15,8 17,3 12 6 26 14 SO 1018,6 - 0 0,0
18.08.2017 21:00:00 19,7 16,8 18,2 15 8 27 15 SO 1018,3 - 0 0,3
18.08.2017 20:00:00 21,0 16,0 20,0 6 3 15 8 SE 1017,4 35 0 0,0
18.08.2017 19:00:00 22,3 14,7 21,4 11 6 37 20 OSO 1016,6 - 1 0,0
18.08.2017 18:00:00 21,6 15,2 18,5 19 10 58 31 O 1014,5 - 0 4,2
18.08.2017 17:00:00 25,6 17,4 - 23 12 - - O 1012,3 4,0 0 0,4
18.08.2017 16:00:00 31,2 14,6 32,8 20 11 42 23 SO 1010,5 - 36 0,0
18.08.2017 15:00:00 31,9 15,1 37,0 21 12 40 22 SO 1011,2 - 60 0,0
18.08.2017 14:00:00 31,5 15,8 36,9 19 11 44 24 SO 1011,9 50 60 0,0
18.08.2017 13:00:00 29,6 16,7 35,7 14 7 25 13 SSO 1013,1 - 60 0,0
18.08.2017 12:00:00 27,1 17,1 33,7 11 6 23 13 SSO 1014,6 - 60 0,0
18.08.2017 11:00:00 24,9 16,3 32,5 7 4 18 10 SO 1015,7 50 60 0,0
18.08.2017 10:00:00 23,0 15,4 30,4 4 2 9 5 OSO 1016,5 - 60 0,0
18.08.2017 09:00:00 21,0 15,1 26,9 1 1 5 3 OSO 1017,3 - 60 0,0
18.08.2017 08:00:00 18,1 14,3 20,4 3 2 6 4 OSO 1018,0 55 34 0,0
18.08.2017 07:00:00 16,5 14,0 14,1 4 2 5 3 ONO 1018,4 - 0 0,0
18.08.2017 06:00:00 15,8 14,1 13,6 3 2 7 4 ONO 1018,4 - 0 0,0
18.08.2017 05:00:00 16,7 14,0 14,0 5 3 7 4 O 1018,2 - 0 0,0
18.08.2017 04:00:00 17,0 14,0 - 1 1 5 3 SSO 1018,0 - 0 0,0
18.08.2017 03:00:00 17,4 15,0 14,0 3 1 8 4 NO 1018,2 - 0 0,0
18.08.2017 02:00:00 18,4 15,3 14,4 2 1 8 5 O 1018,3 - 0 0,0
18.08.2017 01:00:00 18,6 15,6 15,5 2 1 6 4 NO 1018,2 - 0 0,0
18.08.2017 00:00:00 19,8 15,8 16,3 1 1 5 3 ONO 1018,1 - 0 0,0
17.08.2017 23:00:00 21,6 15,8 17,3 3 1 11 6 O 1017,8 35 0 0,0
17.08.2017 22:00:00 23,8 15,6 21,5 8 5 13 7 O 1017,5 - 0 0,0
17.08.2017 21:00:00 24,4 15,7 19,5 2 1 7 4 SSE 1017,3 - 5 0,0
17.08.2017 20:00:00 26,9 16,7 27,0 4 2 13 7 ONO 1016,8 35 58 0,0
17.08.2017 19:00:00 28,7 16,0 31,8 6 3 20 11 O 1016,5 - 39 0,0
17.08.2017 18:00:00 29,8 15,4 33,3 16 9 26 14 SO 1016,2 - 60 0,0
17.08.2017 17:00:00 29,8 15,8 34,4 12 6 25 13 OSO 1016,1 40 56 0,0
17.08.2017 16:00:00 29,5 15,8 35,4 10 5 27 15 SSO 1016,3 - 59 0,0
17.08.2017 15:00:00 29,8 15,4 35,4 16 9 26 14 SO 1016,7 - 60 0,0
17.08.2017 14:00:00 27,7 17,4 36,2 5 3 15 8 OSO 1017,5 30 58 0,0
17.08.2017 13:00:00 26,3 17,4 34,7 6 3 15 8 NNE 1018,2 - 60 0,0
17.08.2017 12:00:00 25,1 17,6 33,5 5 3 22 12 SSE 1018,8 - 60 0,0
17.08.2017 11:00:00 24,0 17,9 31,2 4 2 10 5 NO 1019,4 30 60 0,0
17.08.2017 10:00:00 22,0 17,6 28,9 3 2 8 5 ENE 1019,8 - 60 0,0
17.08.2017 09:00:00 20,3 16,8 25,6 1 1 5 3 NE 1019,9 - 60 0,0
17.08.2017 08:00:00 18,0 16,0 17,8 5 3 9 5 ONO 1020,3 30 26 0,0
17.08.2017 07:00:00 16,2 15,4 14,9 4 2 8 4 ONO 1020,3 - 0 0,0
17.08.2017 06:00:00 16,5 15,6 13,9 1 0 4 2 E 1019,9 - 0 0,0
17.08.2017 05:00:00 16,3 15,7 14,3 1 0 3 1 OSO 1019,8 - 0 0,0
17.08.2017 04:00:00 16,9 16,0 14,9 3 2 9 5 O 1019,8 - 0 0,0
17.08.2017 03:00:00 17,7 16,0 15,1 2 1 6 4 SE 1019,8 - 0 0,0
17.08.2017 02:00:00 17,8 16,3 15,1 2 1 8 4 NE 1019,9 - 0 0,0
17.08.2017 01:00:00 18,7 16,3 15,4 3 2 6 4 S 1019,9 - 0 0,0
17.08.2017 00:00:00 19,7 16,2 16,3 2 1 9 5 NO 1019,7 - 0 0,0
16.08.2017 23:00:00 20,7 16,4 17,6 2 1 6 4 NNE 1019,5 30 0 0,0
16.08.2017 22:00:00 21,9 15,7 19,3 4 2 8 4 NNO 1019,0 - 0 0,0
16.08.2017 21:00:00 23,3 14,1 20,5 4 2 8 4 N 1018,5 - 0 0,0
16.08.2017 20:00:00 25,4 13,1 23,5 9 5 13 7 ENE 1017,9 40 0 0,0
16.08.2017 19:00:00 26,3 15,3 26,5 6 3 11 6 E 1017,4 - 15 0,0
16.08.2017 18:00:00 27,0 14,3 30,4 8 4 14 8 E 1017,4 - 37 0,0
16.08.2017 17:00:00 26,9 14,1 31,8 8 4 14 7 E 1017,7 40 28 0,0
16.08.2017 16:00:00 26,0 13,2 31,5 4 2 13 7 E 1017,9 - 20 0,0
16.08.2017 15:00:00 25,5 14,1 30,0 6 4 17 9 E 1018,5 - 11 0,0
16.08.2017 14:00:00 25,0 13,9 32,1 6 4 18 10 NE 1018,9 40 58 0,0
16.08.2017 13:00:00 24,4 15,2 31,6 8 5 17 9 E 1019,3 - 60 0,0
16.08.2017 12:00:00 23,6 16,2 30,0 11 6 21 11 E 1020,1 - 60 0,0
16.08.2017 11:00:00 22,4 16,3 29,5 9 5 14 8 ENE 1020,6 40 60 0,0
16.08.2017 10:00:00 21,4 15,1 27,6 7 4 16 9 NE 1021,0 - 60 0,0
16.08.2017 09:00:00 20,3 16,4 25,3 7 4 14 8 NE 1021,3 - 60 0,0
16.08.2017 08:00:00 19,1 16,0 20,6 2 1 4 2 OSO 1021,4 50 18 0,0
16.08.2017 07:00:00 17,4 15,4 15,9 5 3 9 5 ONO 1021,6 - 0 0,0
16.08.2017 06:00:00 17,2 15,5 15,6 3 2 8 5 NO 1021,3 - 0 0,0
16.08.2017 05:00:00 17,1 15,6 14,6 1 1 5 3 ESE 1021,4 - 0 0,0
16.08.2017 04:00:00 17,4 15,4 15,1 1 1 12 7 SO 1021,6 - 0 0,0
16.08.2017 03:00:00 19,5 15,4 17,9 8 4 25 14 SO 1021,3 - 0 0,0
16.08.2017 02:00:00 19,7 15,4 17,9 11 6 24 13 O 1021,3 - 0 0,1
16.08.2017 01:00:00 20,1 16,4 17,8 2 1 8 4 O 1021,0 - 0 0,0
16.08.2017 00:00:00 21,0 15,1 19,0 1 1 14 8 ESE 1020,9 - 0 0,0
15.08.2017 23:00:00 21,6 14,7 19,3 3 2 13 7 ESE 1020,3 60 0 0,0
15.08.2017 22:00:00 22,3 14,4 21,3 2 1 20 11 SO 1020,1 - 0 0,0
15.08.2017 21:00:00 24,3 12,4 23,1 13 7 28 15 OSO 1019,3 - 0 0,0
15.08.2017 20:00:00 25,8 14,5 23,2 11 6 22 12 SSO 1017,6 70 0 0,0
15.08.2017 19:00:00 26,7 13,9 25,0 11 6 16 9 SO 1017,2 - 0 0,0
15.08.2017 18:00:00 27,4 12,5 26,8 5 3 21 11 SO 1017,2 - 14 0,0
15.08.2017 17:00:00 27,9 12,7 30,0 13 7 22 12 SSO 1017,1 70 21 0,0
15.08.2017 16:00:00 27,5 13,0 30,2 5 3 22 12 OSO 1017,1 - 0 0,0
15.08.2017 15:00:00 27,2 12,9 29,7 11 6 28 15 SSO 1017,2 - 0 0,0
15.08.2017 14:00:00 27,6 11,4 28,4 20 11 41 22 SO 1017,6 60 33 0,0
15.08.2017 13:00:00 27,7 13,3 - 12 7 28 15 SO 1017,5 - 60 0,0
15.08.2017 12:00:00 26,8 15,2 32,8 11 6 22 12 O 1018,1 - 60 0,0
15.08.2017 11:00:00 24,9 14,8 30,6 10 6 19 11 SO 1018,7 70 60 0,0
15.08.2017 10:00:00 22,8 14,6 28,8 7 4 14 8 SSO 1019,2 - 60 0,0
15.08.2017 09:00:00 20,7 15,4 25,6 3 2 6 3 NO 1019,7 - 60 0,0
15.08.2017 08:00:00 17,5 14,5 18,6 3 2 8 4 NO 1019,8 70 24 0,0
15.08.2017 07:00:00 16,6 14,1 14,3 1 1 8 4 SO 1019,5 - 0 0,0
15.08.2017 06:00:00 16,2 14,1 13,8 2 1 6 3 N 1019,5 - 0 0,0
15.08.2017 05:00:00 16,7 14,3 14,0 1 0 8 4 ESE 1019,4 - 0 0,0
15.08.2017 04:00:00 16,4 14,9 13,8 1 1 6 4 NNO 1019,5 - 0 0,0
15.08.2017 03:00:00 16,6 15,0 14,1 1 1 10 5 SO 1019,1 - 0 0,0
15.08.2017 02:00:00 17,4 15,4 14,4 1 1 5 3 ENE 1018,7 - 0 0,0
15.08.2017 01:00:00 18,3 15,6 15,1 3 2 6 3 NO 1018,7 - 0 0,0
15.08.2017 00:00:00 18,6 15,8 15,8 3 2 7 4 NE 1018,6 - 0 0,0
14.08.2017 23:00:00 20,3 16,2 16,9 1 1 7 4 E 1017,9 50 0 0,0
14.08.2017 22:00:00 22,0 16,3 18,1 5 3 12 7 N 1017,3 - 0 0,0
14.08.2017 21:00:00 24,3 15,7 20,6 8 4 14 8 OSO 1016,4 - 10 0,0
14.08.2017 20:00:00 27,3 14,8 26,8 13 7 24 13 SSO 1015,4 60 60 0,0
14.08.2017 19:00:00 28,9 14,0 30,4 16 9 26 14 SSO 1015,0 - 60 0,0
14.08.2017 18:00:00 29,0 14,0 32,7 13 7 27 15 SO 1015,1 - 60 0,0
14.08.2017 17:00:00 28,9 14,0 - 13 7 - - SO 1015,3 60 60 0,0
14.08.2017 16:00:00 28,3 14,2 34,7 12 7 28 15 OSO 1015,7 - 59 0,0
14.08.2017 15:00:00 28,0 15,2 34,6 8 5 26 14 OSO 1016,4 - 60 0,0
14.08.2017 14:00:00 25,9 15,6 34,2 6 3 17 9 NO 1017,4 55 60 0,0
14.08.2017 13:00:00 24,4 15,0 33,0 6 3 13 7 ESE 1018,2 - 60 0,0
14.08.2017 12:00:00 22,3 14,6 31,4 6 3 14 8 E 1019,1 - 60 0,0
14.08.2017 11:00:00 21,5 14,2 28,7 6 4 16 9 E 1019,3 55 60 0,0
14.08.2017 10:00:00 20,4 15,6 27,0 4 2 9 5 ENE 1019,5 - 60 0,0
14.08.2017 09:00:00 18,1 15,0 24,2 3 2 8 4 NE 1019,9 - 60 0,0
14.08.2017 08:00:00 16,0 14,5 17,6 2 1 5 3 N 1020,1 55 40 0,0
14.08.2017 07:00:00 13,7 13,0 11,3 1 1 5 3 N 1020,4 - 0 0,0
14.08.2017 06:00:00 13,5 13,1 12,2 5 3 6 4 O 1020,2 - 0 0,0

tt = Temperatura
td = dewpoint
tt 5cm = Temperatura 5cm
ff = velocità del vento
fx = gusts
dd = direzione del vento
ppp = reduced air pressure
vv = visibility
sd = ore di luce
rr = precipitazioni

Stazioni seguenti

WeatherPro
AMSI
MeteoEarth